Location: Newark
(50.4348°N, 30.5552°E)
Time: 11:19:58
(UTC+00:00)

Envisat - Pass Details

Date: 17 December 2019
Orbit: 764 x 766 km, 98.1° (Epoch: 18 January)

Event Time Altitude Azimuth Distance (km) Brightness Sun altitude
Rises 16:36:50 0° 192° (SSW) 3,222 6.5 -24.5°
Reaches altitude 10° 16:39:22 10° 203° (SSW) 2,300 5.8 -24.9°
Maximum altitude 16:43:53 32° 266° (W) 1,306 4.8 -25.6°
Drops below altitude 10° 16:48:25 10° 328° (NNW) 2,315 5.8 -26.3°
Sets 16:50:59 0° 339° (NNW) 3,246 6.4 -26.7°
